FW0266 Weather Reports


Display with metric or nautical units.
time (UTC)temp
F
wind
direction
speed
MPH
gust
MPH
rain 1hr
in
rain 24hr
in
rain mn
in
humidity
%
barometer
mb
20260902181521 88 129 13.0 24.0 0.00 0.00 0.00 19 1010.1
20260902180018 87 178 10.0 21.0 0.00 0.00 0.00 21 1010.0
20260902174519 87 165 16.0 23.0 0.00 0.00 0.00 21 1010.2
20260902173016 87 144 15.0 24.0 0.00 0.00 0.00 24 1010.2
20260902171513 85 91 12.0 20.0 0.00 0.00 0.00 31 1009.9
20260902170011 85 125 9.0 14.0 0.00 0.00 0.00 35 1009.9
20260902164513 84 161 8.0 19.0 0.00 0.00 0.00 37 1010.0
20260902163009 84 131 8.0 15.0 0.00 0.00 0.00 39 1009.9
20260902161505 82 106 7.0 14.0 0.00 0.00 0.00 42 1009.9
20260902160004 82 106 8.0 14.0 0.00 0.00 0.00 43 1010.1
20260902154504 82 132 8.0 12.0 0.00 0.00 0.00 42 1010.1
20260902153100 81 139 9.0 14.0 0.00 0.00 0.00 42 1010.1
20260902151558 80 110 7.0 11.0 0.00 0.00 0.00 43 1010.0
20260902150057 80 108 5.0 13.0 0.00 0.00 0.00 44 1009.8
20260902144558 79 115 5.0 9.0 0.00 0.00 0.00 45 1009.8
20260902143056 78 98 3.0 10.0 0.00 0.00 0.00 48 1009.8
20260902141554 0 0.0 0.0 0.00 0.00 0.00 1009.9
20260902140051 0 0.0 0.0 0.00 0.00 0.00 1009.9
20260902134545 0 0.0 0.0 0.00 0.00 0.00 1009.8
20260902133039 0 0.0 0.0 0.00 0.00 0.00 1009.6
20260902131533 0 102 3.0 9.0 0.00 0.00 0.00 1009.4
20260902130031 72 105 4.0 8.0 0.00 0.00 0.00 57 1009.2
20260902124529 72 100 2.0 8.0 0.00 0.00 0.00 58 1009.2
20260902123030 72 98 2.0 5.0 0.00 0.00 0.00 58 1009.1
20260902121527 72 92 3.0 5.0 0.00 0.00 0.00 55 1009.0
20260902120026 72 108 1.0 4.0 0.00 0.00 0.00 54 1008.9
20260902114535 73 187 0.0 2.0 0.00 0.00 0.00 54 1008.8
20260902113018 75 100 1.0 6.0 0.00 0.00 0.00 52 1008.4
20260902111513 75 111 5.0 9.0 0.00 0.00 0.00 51 1008.4
20260902110015 76 109 5.0 9.0 0.00 0.00 0.00 50 1008.3
20260902104513 75 122 4.0 10.0 0.00 0.00 0.00 52 1008.3
20260902103012 76 118 6.0 10.0 0.00 0.00 0.00 53 1008.3
20260902101508 76 112 7.0 13.0 0.00 0.00 0.00 52 1008.3
20260902100008 76 113 6.0 10.0 0.00 0.00 0.00 53 1008.2
20260902094506 76 131 6.0 13.0 0.00 0.00 0.00 54 1008.2
20260902093014 77 132 8.0 12.0 0.00 0.00 0.00 56 1008.3
20260902091501 77 111 6.0 12.0 0.00 0.00 0.00 54 1008.4
20260902090059 77 112 6.0 13.0 0.00 0.00 0.00 51 1008.3
20260902084558 77 117 5.0 9.0 0.00 0.00 0.00 49 1008.4
20260902083057 78 139 8.0 13.0 0.00 0.00 0.00 49 1008.6
20260902081555 79 107 6.0 12.0 0.00 0.00 0.00 45 1008.7
20260902080055 79 126 8.0 16.0 0.00 0.00 0.00 43 1008.7
20260902074549 79 119 6.0 12.0 0.00 0.00 0.00 42 1008.7
20260902073148 78 124 5.0 8.0 0.00 0.00 0.00 42 1008.7
20260902071547 78 106 4.0 10.0 0.00 0.00 0.00 42 1008.7
20260902070044 78 115 3.0 7.0 0.00 0.00 0.00 43 1008.6
20260902064544 78 99 3.0 9.0 0.00 0.00 0.00 45 1008.6
20260902063042 79 112 5.0 8.0 0.00 0.00 0.00 44 1008.6
20260902060050 80 114 7.0 11.0 0.00 0.00 0.00 46 1008.6
20260902054540 80 111 7.0 12.0 0.00 0.00 0.00 47 1008.5
20260902053035 80 127 7.0 12.0 0.00 0.00 0.00 49 1008.6
20260902051533 80 139 9.0 15.0 0.00 0.00 0.00 50 1008.7
20260902050039 80 134 7.0 19.0 0.00 0.00 0.00 52 1008.6
20260902044529 81 126 8.0 15.0 0.00 0.00 0.00 53 1008.7
20260902043026 81 139 7.0 13.0 0.00 0.00 0.00 53 1008.6
20260902041525 81 105 9.0 13.0 0.00 0.00 0.00 51 1008.4
20260902040022 81 136 7.0 15.0 0.00 0.00 0.00 51 1008.3
20260902034521 82 131 5.0 13.0 0.00 0.00 0.00 50 1008.2
20260902033021 82 139 5.0 11.0 0.00 0.00 0.00 50 1008.0
20260902031522 82 136 7.0 12.0 0.00 0.00 0.00 49 1007.8
20260902030019 82 122 8.0 14.0 0.00 0.00 0.00 49 1007.7
20260902024522 83 124 5.0 11.0 0.00 0.00 0.00 47 1007.6
20260902023022 83 124 7.0 13.0 0.00 0.00 0.00 45 1007.5
20260902021531 83 125 11.0 15.0 0.00 0.00 0.00 45 1007.3
20260902020016 84 172 11.0 18.0 0.00 0.00 0.00 44 1007.2
20260902014524 85 152 11.0 17.0 0.00 0.00 0.00 43 1007.1
20260902013015 85 142 9.0 19.0 0.00 0.00 0.00 42 1007.3
20260902011514 88 153 10.0 19.0 0.00 0.00 0.00 40 1007.3
20260902010023 88 179 12.0 21.0 0.00 0.00 0.00 40 1007.5
20260902004515 89 178 11.0 24.0 0.00 0.00 0.00 38 1007.5
20260902003012 89 148 13.0 24.0 0.00 0.00 0.00 39 1007.6
20260902001510 90 149 14.0 21.0 0.00 0.00 0.00 38 1007.7
20260902000011 90 147 10.0 19.0 0.00 0.00 0.00 37 1007.9
20260901234510 90 149 11.0 22.0 0.00 0.00 0.00 37 1007.8
20260901233011 90 139 15.0 27.0 0.00 0.00 0.00 37 1008.1
20260901231507 90 158 15.0 24.0 0.00 0.00 0.00 36 1008.4
20260901230004 90 162 16.0 27.0 0.00 0.00 0.00 36 1008.3
20260901224504 90 200 15.0 24.0 0.00 0.00 0.00 35 1008.3
20260901223004 91 188 14.0 25.0 0.00 0.00 0.00 33 1008.4
20260901221501 90 141 11.0 24.0 0.00 0.00 0.00 35 1008.5
20260901220002 90 191 14.0 24.0 0.00 0.00 0.00 34 1008.7
20260901214608 91 172 17.0 26.0 0.00 0.00 0.00 35 1008.8
20260901213136 91 183 17.0 26.0 0.00 0.00 0.00 33 1009.0
20260901211559 90 150 16.0 25.0 0.00 0.00 0.00 33 1009.0
20260901210057 90 187 16.0 25.0 0.00 0.00 0.00 35 1009.2
20260901204557 90 141 14.0 25.0 0.00 0.00 0.00 31 1009.3
20260901203117 90 184 17.0 28.0 0.00 0.00 0.00 31 1009.5
20260901201558 90 174 17.0 24.0 0.00 0.00 0.00 31 1009.8
20260901200054 90 201 14.0 27.0 0.00 0.00 0.00 32 1009.6
20260901194552 89 208 17.0 24.0 0.00 0.00 0.00 30 1009.7
20260901193050 88 188 13.0 21.0 0.00 0.00 0.00 37 1009.9
20260901191647 86 116 7.0 18.0 0.00 0.00 0.00 47 1010.1
20260901190045 85 151 6.0 15.0 0.00 0.00 0.00 46 1010.3
20260901184542 85 150 5.0 11.0 0.00 0.00 0.00 47 1010.3
20260901183049 85 144 7.0 16.0 0.00 0.00 0.00 49 1010.4